Tallulah, LA

8:23 AM CST on February 07, 2016 (GMT -0600)
Vicksburg Tallulah Regional

Weather History for KTVR - November, 2011

Change the Weather History Date:

Sunday, November 27, 2011

  Actual Average Record
Temperature  
Mean Temperature 50 °F 52 °F  
Max Temperature 59 °F 63 °F 84 °F (1965)
Min Temperature 41 °F 41 °F 21 °F (1956)
Degree Days  
Heating Degree Days 15 13  
Month to date heating degree days 214 258  
Since 1 July heating degree days 371 360  
Cooling Degree Days 0 0  
Month to date cooling degree days 35 12  
Year to date cooling degree days 2588 2221  
Moisture  
Dew Point 46 °F    
Average Humidity 91    
Maximum Humidity 100    
Minimum Humidity 82    
Precipitation  
Precipitation 0.31 in 0.20 in 2.03 in (2001)
Month to date precipitation 3.41 4.33  
Year to date precipitation 31.37 48.46  
Sea Level Pressure  
Sea Level Pressure 30.05 in    
Wind  
Wind Speed 9 mph (NW)    
Max Wind Speed 17 mph    
Max Gust Speed 24 mph    
Visibility 9 miles    
Events Rain    
T = Trace of Precipitation, MM = Missing Value Source: NWS Daily Summary

Daily Weather History Graph

Daily Weather History Graph

Search for Another Location

Airport or City:

Trip Planner

Search our weather history database for the weather conditions in past years. The results will help you decide how hot, cold, wet, or windy it might be!

Date:

Astronomy

Nov. 27, 2011 Rise Set
Actual Time 6:43 AM CST 4:59 PM CST
Civil Twilight 6:17 AM CST 5:25 PM CST
Nautical Twilight 5:47 AM CST 5:55 PM CST
Astronomical Twilight 5:17 AM CST 6:25 PM CST
Moon 9:07 AM CST (11/27) 7:38 PM CST (11/27)
Length of Visible Light 11h 08m
Length of Day
10h 15m
Waxing Crescent, 8% of the Moon is Illuminated
Nov 27
Waxing Crescent
Dec 2
First Quarter
Dec 10
Full
Dec 17
Last Quarter
Dec 24
New

Hourly Weather History & Observations

Time (CST) Temp. Windchill Dew Point Humidity Pressure Visibility Wind Dir Wind Speed Gust Speed Precip Events Conditions
12:53 AM 57.9 °F - 57.9 °F 100% 29.96 in 9.0 mi Calm Calm - 0.01 in Rain Light Rain
1:05 AM 57.2 °F - 57.2 °F 100% 29.94 in 10.0 mi Calm Calm - 0.00 in   Overcast
1:53 AM 59.0 °F - 57.0 °F 93% 29.96 in 10.0 mi SW 4.6 mph - 0.00 in Rain Light Rain
2:36 AM 57.2 °F - 57.2 °F 100% 29.97 in 6.0 mi WSW 10.4 mph - 0.04 in Rain Rain
2:51 AM 57.2 °F - 55.4 °F 94% 29.97 in 6.0 mi West 12.7 mph 24.2 mph 0.07 in Rain Heavy Rain
2:53 AM 55.9 °F - 55.0 °F 97% 29.99 in 6.0 mi West 11.5 mph 23.0 mph 0.08 in Rain Rain
3:14 AM 55.4 °F - 53.6 °F 94% 29.97 in 10.0 mi West 8.1 mph 16.1 mph 0.00 in Rain Light Rain
3:48 AM 53.6 °F - 51.8 °F 94% 29.97 in 10.0 mi West 9.2 mph - 0.01 in Rain Light Rain
3:53 AM 54.0 °F - 52.0 °F 93% 29.99 in 10.0 mi West 6.9 mph - 0.01 in Rain Light Rain
4:53 AM 53.1 °F - 52.0 °F 96% 29.99 in 9.0 mi NW 11.5 mph - 0.05 in Rain Light Rain
5:26 AM 51.8 °F - 50.0 °F 94% 29.95 in 8.0 mi NW 6.9 mph - 0.03 in Rain Rain
5:34 AM 51.8 °F - 50.0 °F 94% 29.97 in 10.0 mi WNW 11.5 mph 16.1 mph 0.03 in Rain Light Rain
5:41 AM 51.8 °F - 50.0 °F 94% 29.98 in 10.0 mi WNW 10.4 mph - 0.03 in Rain Light Rain
6:53 AM 48.0 °F - 46.0 °F 93% 30.04 in 7.0 mi NNW 10.4 mph 18.4 mph 0.03 in Rain Light Rain
7:15 AM 46.4 °F 41.9 °F 46.4 °F 100% 30.03 in 10.0 mi NNW 9.2 mph - 0.00 in Rain Light Rain
7:45 AM 46.4 °F 41.9 °F 44.6 °F 93% 30.04 in 10.0 mi NNW 9.2 mph - 0.00 in Rain Light Rain
7:53 AM 46.9 °F - 45.0 °F 93% 30.06 in 10.0 mi NNW 11.5 mph 16.1 mph 0.00 in Rain Light Rain
8:16 AM 46.4 °F 41.5 °F 44.6 °F 93% 30.05 in 10.0 mi NNW 10.4 mph 18.4 mph 0.01 in Rain Light Rain
8:28 AM 46.4 °F 41.9 °F 44.6 °F 93% 30.07 in 10.0 mi NW 9.2 mph 16.1 mph 0.01 in Rain Light Rain
9:16 AM 46.4 °F 41.9 °F 44.6 °F 93% 30.07 in 10.0 mi NNW 9.2 mph 16.1 mph 0.01 in Rain Light Rain
9:44 AM 46.4 °F 42.4 °F 44.6 °F 93% 30.09 in 10.0 mi NNW 8.1 mph - 0.01 in Rain Light Rain
9:53 AM 46.9 °F - 45.0 °F 93% 30.12 in 10.0 mi NNW 8.1 mph - 0.01 in Rain Light Rain
10:23 AM 46.4 °F 42.4 °F 44.6 °F 93% 30.08 in 6.0 mi NNW 8.1 mph - 0.01 in Rain Rain
10:53 AM 46.0 °F 42.5 °F 45.0 °F 96% 30.10 in 8.0 mi NNW 6.9 mph - 0.02 in Rain Light Rain
11:10 AM 46.4 °F 41.1 °F 44.6 °F 93% 30.06 in 10.0 mi North 11.5 mph - 0.00 in Rain Light Rain
11:31 AM 46.4 °F 41.9 °F 44.6 °F 93% 30.08 in 10.0 mi North 9.2 mph - 0.00 in   Overcast
11:53 AM 46.0 °F 44.8 °F 44.1 °F 93% 30.10 in 10.0 mi NW 3.5 mph - 0.00 in   Overcast
12:01 PM 46.4 °F 41.9 °F 44.6 °F 93% 30.07 in 4.0 mi NNW 9.2 mph 17.3 mph 0.00 in Rain Light Rain
12:28 PM 46.4 °F 41.9 °F 44.6 °F 93% 30.07 in 8.0 mi NNW 9.2 mph - 0.02 in Rain Light Rain
12:44 PM 46.4 °F 40.7 °F 44.6 °F 93% 30.06 in 4.0 mi NW 12.7 mph 18.4 mph 0.02 in Rain Light Rain
12:53 PM 45.0 °F 39.3 °F 44.1 °F 97% 30.08 in 3.0 mi NW 11.5 mph 18.4 mph 0.03 in Rain Light Rain
1:01 PM 44.6 °F 39.2 °F 44.6 °F 100% 30.07 in 4.0 mi NW 10.4 mph 18.4 mph 0.00 in Rain Light Rain
1:10 PM 44.6 °F 38.8 °F 42.8 °F 93% 30.07 in 7.0 mi NNW 11.5 mph 20.7 mph 0.00 in Rain Light Rain
1:23 PM 44.6 °F 39.2 °F 42.8 °F 93% 30.07 in 6.0 mi NNW 10.4 mph 17.3 mph 0.01 in Rain Light Rain
1:31 PM 44.6 °F 38.8 °F 42.8 °F 93% 30.07 in 8.0 mi NNW 11.5 mph 17.3 mph 0.01 in Rain Light Rain
1:41 PM 44.6 °F 40.2 °F 42.8 °F 93% 30.07 in 10.0 mi NW 8.1 mph 16.1 mph 0.01 in Rain Light Rain
1:53 PM 45.0 °F 39.7 °F 42.1 °F 90% 30.09 in 10.0 mi NNW 10.4 mph 16.1 mph 0.01 in Rain Light Rain
2:06 PM 44.6 °F 39.2 °F 42.8 °F 93% 30.06 in 10.0 mi NNW 10.4 mph - 0.00 in   Overcast
2:53 PM 46.0 °F 41.0 °F 42.1 °F 86% 30.08 in 10.0 mi NNW 10.4 mph - 0.00 in   Overcast
3:19 PM 44.6 °F 40.2 °F 42.8 °F 93% 30.07 in 9.0 mi NNW 8.1 mph 16.1 mph 0.00 in Rain Light Rain
3:34 PM 44.6 °F 38.8 °F 42.8 °F 93% 30.07 in 10.0 mi NNW 11.5 mph 18.4 mph 0.00 in   Overcast
3:53 PM 44.1 °F 39.5 °F 41.0 °F 89% 30.10 in 10.0 mi NNW 8.1 mph - 0.00 in   Overcast
4:53 PM 44.1 °F 40.1 °F 41.0 °F 89% 30.11 in 10.0 mi NW 6.9 mph - 0.00 in   Overcast
5:53 PM 43.0 °F 37.2 °F 39.9 °F 89% 30.12 in 10.0 mi NW 10.4 mph - 0.00 in   Overcast
6:53 PM 43.0 °F 38.2 °F 39.0 °F 86% 30.13 in 10.0 mi NNW 8.1 mph 18.4 mph 0.00 in   Overcast
7:53 PM 43.0 °F 36.8 °F 39.0 °F 86% 30.14 in 10.0 mi NW 11.5 mph 17.3 mph N/A   Overcast
8:53 PM 43.0 °F 37.2 °F 37.9 °F 82% 30.14 in 10.0 mi NNW 10.4 mph - N/A   Overcast
9:53 PM 42.1 °F 35.7 °F 37.0 °F 82% 30.13 in 10.0 mi NW 11.5 mph 19.6 mph N/A   Overcast
10:53 PM 42.1 °F 37.1 °F 37.0 °F 82% 30.12 in 10.0 mi NW 8.1 mph 17.3 mph N/A   Overcast
11:53 PM 41.0 °F 35.2 °F 37.9 °F 89% 30.11 in 9.0 mi NW 9.2 mph - N/A   Overcast